軌道要素
Epoch 2024 Mar. 31.0 TT = JDT 2460400.5
T 2021 June 22.14686 TT Rudenko
q 3.6078713 (2000.0) P Q
z -0.0004051 Peri. 251.34104 +0.09613948 +0.85660632
+/-0.0000004 Node 38.66387 -0.27428436 +0.51237490
e 1.0014616 Incl. 54.23486 -0.95683086 -0.06080776
>From 1976 observations 2019 Feb. 8-2024 Jan. 31, mean residual 0".7.
|